Time,TemperatureF,DewpointF,PressureIn,WindDirection,WindDirectionDegrees,WindSpeedMPH,WindSpeedGustMPH,Humidity,HourlyPrecipIn,Conditions,Clouds,dailyrainin,SoftwareType,DateUTC
2013-08-31 00:00:00,73.0,72.0,29.76,NE,35,0.0,1.0,91,0.00,,,0.00,meteohub,2013-08-31 05:00:00,
2013-08-31 00:05:00,73.0,71.8,29.76,NE,35,0.0,1.0,91,0.00,,,0.00,meteohub,2013-08-31 05:05:00,
2013-08-31 00:10:00,73.0,72.0,29.76,NE,35,0.0,1.0,92,0.00,,,0.00,meteohub,2013-08-31 05:10:00,
2013-08-31 00:15:00,73.0,71.8,29.76,NE,35,0.0,1.0,92,0.00,,,0.00,meteohub,2013-08-31 05:15:00,
2013-08-31 00:20:00,72.0,71.4,29.76,NE,35,0.0,1.0,92,0.00,,,0.00,meteohub,2013-08-31 05:20:00,
2013-08-31 00:25:00,72.0,71.6,29.76,NE,35,0.0,1.0,92,0.00,,,0.00,meteohub,2013-08-31 05:25:00,
2013-08-31 00:30:00,72.0,71.4,29.76,NE,35,0.0,0.0,92,0.00,,,0.00,meteohub,2013-08-31 05:30:00,
2013-08-31 00:35:00,72.0,71.6,29.76,NE,35,0.0,1.0,92,0.00,,,0.00,meteohub,2013-08-31 05:35:00,
2013-08-31 00:40:00,72.0,71.4,29.76,NE,35,0.0,1.0,92,0.00,,,0.00,meteohub,2013-08-31 05:40:00,
2013-08-31 00:45:00,71.1,71.2,29.76,NE,35,0.0,1.0,92,0.00,,,0.00,meteohub,2013-08-31 05:45:00,
2013-08-31 00:51:00,71.1,71.1,29.76,NE,35,0.0,1.0,92,0.00,,,0.00,meteohub,2013-08-31 05:51:00,
2013-08-31 00:56:00,71.1,71.2,29.76,NE,35,0.0,1.0,92,0.00,,,0.00,meteohub,2013-08-31 05:56:00,
2013-08-31 01:01:00,71.1,71.2,29.76,NE,35,0.0,1.0,93,0.00,,,0.00,meteohub,2013-08-31 06:01:00,
2013-08-31 01:06:00,71.1,71.1,29.76,NE,35,0.0,1.0,94,0.00,,,0.00,meteohub,2013-08-31 06:06:00,
2013-08-31 01:11:00,71.1,71.4,29.76,NE,35,0.0,1.0,94,0.00,,,0.00,meteohub,2013-08-31 06:11:00,
2013-08-31 01:16:00,72.0,71.2,29.75,NE,35,0.0,1.0,93,0.00,,,0.00,meteohub,2013-08-31 06:16:00,
2013-08-31 01:21:00,72.0,71.2,29.75,NE,35,3.0,3.0,93,0.00,,,0.00,meteohub,2013-08-31 06:21:00,
2013-08-31 01:26:00,72.0,71.2,29.75,NE,35,0.0,4.0,93,0.00,,,0.00,meteohub,2013-08-31 06:26:00,
2013-08-31 01:32:00,72.0,71.2,29.75,NE,35,0.0,4.0,93,0.00,,,0.00,meteohub,2013-08-31 06:32:00,
2013-08-31 01:37:00,72.0,71.2,29.77,West,279,2.0,4.0,92,0.00,,,0.00,meteohub,2013-08-31 06:37:00,
2013-08-31 01:42:00,72.0,71.1,29.81,West,276,9.0,9.0,93,0.00,,,0.00,meteohub,2013-08-31 06:42:00,
2013-08-31 01:47:00,72.0,71.1,29.80,ENE,66,3.0,15.0,94,0.00,,,0.00,meteohub,2013-08-31 06:47:00,
2013-08-31 01:52:00,72.0,71.4,29.80,NW,305,2.0,15.0,94,0.00,,,0.00,meteohub,2013-08-31 06:52:00,
2013-08-31 01:57:00,72.0,71.8,29.80,West,279,0.0,15.0,94,0.00,,,0.00,meteohub,2013-08-31 06:57:00,
2013-08-31 02:03:00,73.0,71.6,29.79,West,280,0.0,11.0,93,0.00,,,0.00,meteohub,2013-08-31 07:03:00,
2013-08-31 02:08:00,73.0,71.6,29.79,WNW,283,0.0,9.0,93,0.00,,,0.00,meteohub,2013-08-31 07:08:00,
2013-08-31 02:13:00,73.0,71.4,29.79,WNW,286,1.0,6.0,93,0.00,,,0.00,meteohub,2013-08-31 07:13:00,
2013-08-31 02:18:00,73.0,71.4,29.79,WNW,286,0.0,4.0,93,0.00,,,0.00,meteohub,2013-08-31 07:18:00,
2013-08-31 02:23:00,73.0,71.6,29.78,WNW,286,0.0,4.0,93,0.00,,,0.00,meteohub,2013-08-31 07:23:00,
2013-08-31 02:28:00,73.0,71.2,29.78,WNW,286,0.0,3.0,92,0.00,,,0.00,meteohub,2013-08-31 07:28:00,
2013-08-31 02:33:00,73.0,71.2,29.77,WNW,286,0.0,3.0,92,0.00,,,0.00,meteohub,2013-08-31 07:33:00,
2013-08-31 02:38:00,73.0,71.2,29.77,NE,40,4.0,0.0,92,0.00,,,0.00,meteohub,2013-08-31 07:38:00,
2013-08-31 02:43:00,73.0,71.2,29.77,NNE,24,0.0,5.0,91,0.00,,,0.00,meteohub,2013-08-31 07:43:00,
2013-08-31 02:48:00,73.0,71.2,29.77,NNE,24,0.0,5.0,91,0.00,,,0.00,meteohub,2013-08-31 07:48:00,
2013-08-31 02:54:00,73.0,71.2,29.77,NNE,24,0.0,5.0,91,0.00,,,0.00,meteohub,2013-08-31 07:54:00,
2013-08-31 02:59:00,73.0,71.1,29.76,NNE,24,0.0,3.0,91,0.00,,,0.00,meteohub,2013-08-31 07:59:00,
2013-08-31 03:04:00,73.0,70.9,29.76,NNE,24,0.0,3.0,91,0.00,,,0.00,meteohub,2013-08-31 08:04:00,
2013-08-31 03:09:00,72.0,70.9,29.77,NNE,24,0.0,3.0,91,0.00,,,0.00,meteohub,2013-08-31 08:09:00,
2013-08-31 03:14:00,72.0,70.7,29.77,NNE,24,0.0,3.0,92,0.00,,,0.00,meteohub,2013-08-31 08:14:00,
2013-08-31 03:19:00,72.0,70.7,29.77,NNE,24,0.0,0.0,92,0.00,,,0.00,meteohub,2013-08-31 08:19:00,
2013-08-31 03:24:00,72.0,70.7,29.78,NNE,23,0.0,1.0,92,0.00,,,0.00,meteohub,2013-08-31 08:24:00,
2013-08-31 03:29:00,72.0,70.3,29.77,NNE,24,0.0,1.0,92,0.00,,,0.00,meteohub,2013-08-31 08:29:00,
2013-08-31 03:34:00,72.0,70.5,29.77,NNE,24,0.0,1.0,92,0.00,,,0.00,meteohub,2013-08-31 08:34:00,
2013-08-31 03:39:00,72.0,70.2,29.77,NNE,24,0.0,0.0,92,0.00,,,0.00,meteohub,2013-08-31 08:39:00,
2013-08-31 03:44:00,72.0,70.0,29.77,NNE,24,0.0,0.0,92,0.00,,,0.00,meteohub,2013-08-31 08:44:00,
2013-08-31 03:50:00,72.0,70.2,29.76,NNE,24,0.0,0.0,93,0.00,,,0.00,meteohub,2013-08-31 08:50:00,
2013-08-31 03:55:00,72.0,70.0,29.76,NNE,24,0.0,1.0,93,0.00,,,0.00,meteohub,2013-08-31 08:55:00,
2013-08-31 04:00:00,71.1,69.6,29.76,NNE,23,0.0,1.0,92,0.00,,,0.00,meteohub,2013-08-31 09:00:00,
2013-08-31 04:05:00,71.1,69.8,29.75,NNE,24,0.0,1.0,92,0.00,,,0.00,meteohub,2013-08-31 09:05:00,
2013-08-31 04:10:00,71.1,69.6,29.75,NNE,24,0.0,0.0,92,0.00,,,0.00,meteohub,2013-08-31 09:10:00,
2013-08-31 04:15:00,71.1,69.6,29.75,NNE,23,0.0,0.0,93,0.00,,,0.00,meteohub,2013-08-31 09:15:00,
2013-08-31 04:20:00,71.1,69.4,29.75,NNE,24,0.0,0.0,93,0.00,,,0.00,meteohub,2013-08-31 09:20:00,
2013-08-31 04:25:00,71.1,69.3,29.75,NNE,24,0.0,0.0,93,0.00,,,0.00,meteohub,2013-08-31 09:25:00,
2013-08-31 04:30:00,71.1,69.4,29.75,NNE,24,0.0,0.0,93,0.00,,,0.00,meteohub,2013-08-31 09:30:00,
2013-08-31 04:35:00,70.0,69.3,29.76,NNE,24,0.0,0.0,92,0.00,,,0.00,meteohub,2013-08-31 09:35:00,
2013-08-31 04:40:00,70.0,68.7,29.76,NNE,24,0.0,0.0,93,0.00,,,0.00,meteohub,2013-08-31 09:40:00,
2013-08-31 04:45:00,70.0,68.9,29.76,NNE,23,0.0,0.0,93,0.00,,,0.00,meteohub,2013-08-31 09:45:00,
2013-08-31 04:51:00,70.0,68.9,29.76,NNE,24,0.0,0.0,94,0.00,,,0.00,meteohub,2013-08-31 09:51:00,
2013-08-31 04:56:00,70.0,69.3,29.76,NNE,24,0.0,0.0,94,0.00,,,0.00,meteohub,2013-08-31 09:56:00,
2013-08-31 05:01:00,70.0,69.4,29.75,NNE,23,0.0,0.0,93,0.00,,,0.00,meteohub,2013-08-31 10:01:00,
2013-08-31 05:06:00,70.0,69.4,29.77,NNE,24,0.0,0.0,94,0.00,,,0.00,meteohub,2013-08-31 10:06:00,
2013-08-31 05:11:00,70.0,69.3,29.77,NNE,24,0.0,1.0,94,0.00,,,0.00,meteohub,2013-08-31 10:11:00,
2013-08-31 05:16:00,70.0,69.1,29.76,NNE,24,0.0,1.0,94,0.00,,,0.00,meteohub,2013-08-31 10:16:00,
2013-08-31 05:22:00,70.0,69.1,29.76,NNE,24,0.0,1.0,94,0.00,,,0.00,meteohub,2013-08-31 10:22:00,
2013-08-31 05:27:00,70.0,69.1,29.77,NNE,24,0.0,0.0,94,0.00,,,0.00,meteohub,2013-08-31 10:27:00,
2013-08-31 05:32:00,70.0,69.4,29.76,NNE,24,0.0,0.0,94,0.00,,,0.00,meteohub,2013-08-31 10:32:00,
2013-08-31 05:37:00,70.0,69.1,29.77,NNE,24,0.0,0.0,94,0.00,,,0.00,meteohub,2013-08-31 10:37:00,
2013-08-31 05:42:00,70.0,69.1,29.76,NNE,23,0.0,0.0,94,0.00,,,0.00,meteohub,2013-08-31 10:42:00,
2013-08-31 05:47:00,70.0,69.4,29.77,NNE,24,0.0,0.0,94,0.00,,,0.00,meteohub,2013-08-31 10:47:00,
2013-08-31 05:52:00,70.0,68.9,29.77,NNE,24,0.0,0.0,94,0.00,,,0.00,meteohub,2013-08-31 10:52:00,
2013-08-31 05:57:00,70.0,69.3,29.78,NNE,24,0.0,0.0,94,0.00,,,0.00,meteohub,2013-08-31 10:57:00,
2013-08-31 06:03:00,70.0,69.1,29.78,NNE,23,0.0,0.0,94,0.00,,,0.00,meteohub,2013-08-31 11:03:00,
2013-08-31 06:08:00,70.0,69.1,29.78,NNE,24,0.0,0.0,94,0.00,,,0.00,meteohub,2013-08-31 11:08:00,
2013-08-31 06:14:00,70.0,69.1,29.78,NNE,24,0.0,0.0,94,0.00,,,0.00,meteohub,2013-08-31 11:14:00,
2013-08-31 06:19:00,70.0,69.1,29.78,NNE,24,0.0,0.0,94,0.00,,,0.00,meteohub,2013-08-31 11:19:00,
2013-08-31 06:24:00,70.0,69.1,29.78,NNE,24,0.0,0.0,94,0.00,,,0.00,meteohub,2013-08-31 11:24:00,
2013-08-31 06:29:00,70.0,69.1,29.78,NNE,24,0.0,0.0,94,0.00,,,0.00,meteohub,2013-08-31 11:29:00,
2013-08-31 06:34:00,70.0,69.1,29.78,NNE,23,0.0,0.0,94,0.00,,,0.00,meteohub,2013-08-31 11:34:00,
2013-08-31 06:39:00,70.0,69.1,29.78,NNE,24,0.0,0.0,94,0.00,,,0.00,meteohub,2013-08-31 11:39:00,
2013-08-31 06:44:00,70.0,69.1,29.78,NNE,24,0.0,0.0,95,0.00,,,0.00,meteohub,2013-08-31 11:44:00,
2013-08-31 06:49:00,70.0,69.1,29.78,NNE,24,0.0,0.0,95,0.00,,,0.00,meteohub,2013-08-31 11:49:00,
2013-08-31 06:54:00,70.0,69.1,29.78,NNE,24,0.0,0.0,95,0.00,,,0.00,meteohub,2013-08-31 11:54:00,
2013-08-31 07:00:00,70.0,69.4,29.78,NNE,23,0.0,0.0,95,0.00,,,0.00,meteohub,2013-08-31 12:00:00,
2013-08-31 07:05:00,70.0,69.3,29.78,NNE,24,0.0,0.0,95,0.00,,,0.00,meteohub,2013-08-31 12:05:00,
2013-08-31 07:10:00,70.0,69.3,29.78,NNE,24,0.0,0.0,95,0.00,,,0.00,meteohub,2013-08-31 12:10:00,
2013-08-31 07:15:00,70.0,69.3,29.77,NNE,23,2.0,2.0,95,0.00,,,0.00,meteohub,2013-08-31 12:15:00,
2013-08-31 07:20:00,70.0,69.6,29.75,ENE,57,4.0,6.0,95,0.00,,,0.00,meteohub,2013-08-31 12:20:00,
2013-08-31 07:25:00,71.1,70.0,29.75,NE,55,3.0,8.0,95,0.00,,,0.00,meteohub,2013-08-31 12:25:00,
2013-08-31 07:31:00,71.1,70.3,29.77,NE,55,4.0,8.0,95,0.00,,,0.00,meteohub,2013-08-31 12:31:00,
2013-08-31 07:36:00,71.1,70.7,29.77,SSW,199,3.0,8.0,95,0.00,,,0.00,meteohub,2013-08-31 12:36:00,
2013-08-31 07:41:00,71.1,70.3,29.78,WSW,250,3.0,5.0,94,0.00,,,0.00,meteohub,2013-08-31 12:41:00,
2013-08-31 07:46:00,71.1,70.3,29.79,WSW,250,0.0,6.0,94,0.00,,,0.00,meteohub,2013-08-31 12:46:00,
2013-08-31 07:52:00,71.1,70.3,29.79,WSW,250,1.0,6.0,94,0.00,,,0.00,meteohub,2013-08-31 12:52:00,
2013-08-31 07:57:00,71.1,70.5,29.79,WSW,250,0.0,6.0,94,0.00,,,0.00,meteohub,2013-08-31 12:57:00,
2013-08-31 08:02:00,71.1,70.7,29.80,WSW,250,0.0,3.0,94,0.00,,,0.00,meteohub,2013-08-31 13:02:00,
2013-08-31 08:07:00,72.0,70.7,29.79,WSW,250,0.0,3.0,94,0.00,,,0.00,meteohub,2013-08-31 13:07:00,
2013-08-31 08:12:00,72.0,70.9,29.79,WSW,250,0.0,0.0,94,0.00,,,0.00,meteohub,2013-08-31 13:12:00,
2013-08-31 08:17:00,72.0,71.1,29.79,WSW,250,0.0,0.0,94,0.00,,,0.00,meteohub,2013-08-31 13:17:00,
2013-08-31 08:22:00,72.0,70.9,29.78,WSW,250,0.0,0.0,94,0.00,,,0.00,meteohub,2013-08-31 13:22:00,
2013-08-31 08:27:00,72.0,70.9,29.78,WSW,250,0.0,0.0,94,0.00,,,0.00,meteohub,2013-08-31 13:27:00,
2013-08-31 08:33:00,72.0,71.1,29.78,WSW,250,0.0,0.0,94,0.00,,,0.00,meteohub,2013-08-31 13:33:00,
2013-08-31 08:38:00,72.0,71.2,29.78,WSW,250,0.0,0.0,94,0.00,,,0.00,meteohub,2013-08-31 13:38:00,
2013-08-31 08:43:00,72.0,71.2,29.78,WSW,249,0.0,0.0,94,0.00,,,0.00,meteohub,2013-08-31 13:43:00,
2013-08-31 08:49:00,72.0,71.4,29.78,WSW,250,0.0,0.0,94,0.00,,,0.00,meteohub,2013-08-31 13:49:00,
2013-08-31 08:54:00,72.0,71.4,29.78,WSW,250,0.0,0.0,94,0.00,,,0.00,meteohub,2013-08-31 13:54:00,
2013-08-31 08:59:00,73.0,71.8,29.78,WSW,250,0.0,0.0,94,0.00,,,0.00,meteohub,2013-08-31 13:59:00,
2013-08-31 09:04:00,73.0,71.8,29.78,WSW,250,2.0,0.0,94,0.00,,,0.00,meteohub,2013-08-31 14:04:00,
2013-08-31 09:10:00,73.0,71.6,29.78,WSW,250,2.0,0.0,93,0.00,,,0.00,meteohub,2013-08-31 14:10:00,
2013-08-31 09:15:00,73.0,71.6,29.78,WSW,250,0.0,3.0,93,0.00,,,0.00,meteohub,2013-08-31 14:15:00,
2013-08-31 09:20:00,73.0,71.8,29.78,WSW,250,1.0,3.0,93,0.00,,,0.00,meteohub,2013-08-31 14:20:00,
2013-08-31 09:25:00,73.0,71.8,29.78,WSW,250,0.0,3.0,93,0.00,,,0.00,meteohub,2013-08-31 14:25:00,
2013-08-31 09:30:00,73.0,72.0,29.79,WSW,255,0.0,3.0,93,0.00,,,0.00,meteohub,2013-08-31 14:30:00,
2013-08-31 09:35:00,73.9,72.3,29.79,WSW,256,2.0,3.0,93,0.00,,,0.00,meteohub,2013-08-31 14:35:00,
2013-08-31 09:40:00,73.9,72.1,29.78,WSW,256,0.0,2.0,93,0.00,,,0.00,meteohub,2013-08-31 14:40:00,
2013-08-31 09:46:00,73.9,72.3,29.78,WSW,256,0.0,2.0,92,0.00,,,0.00,meteohub,2013-08-31 14:46:00,
2013-08-31 09:51:00,73.9,72.3,29.79,WSW,256,0.0,2.0,92,0.00,,,0.00,meteohub,2013-08-31 14:51:00,
2013-08-31 09:56:00,75.0,72.5,29.79,WSW,255,0.0,0.0,91,0.00,,,0.00,meteohub,2013-08-31 14:56:00,
2013-08-31 10:01:00,75.0,72.9,29.79,WSW,256,0.0,2.0,91,0.00,,,0.00,meteohub,2013-08-31 15:01:00,
2013-08-31 10:06:00,75.9,73.0,29.79,WSW,256,0.0,2.0,91,0.00,,,0.00,meteohub,2013-08-31 15:06:00,
2013-08-31 10:11:00,75.9,73.0,29.79,WSW,256,0.0,2.0,90,0.00,,,0.00,meteohub,2013-08-31 15:11:00,
2013-08-31 10:16:00,75.9,73.2,29.79,WSW,256,0.0,3.0,88,0.00,,,0.00,meteohub,2013-08-31 15:16:00,
2013-08-31 10:22:00,77.0,73.6,29.79,WSW,256,3.0,3.0,89,0.00,,,0.00,meteohub,2013-08-31 15:22:00,
2013-08-31 10:27:00,77.0,73.6,29.79,NNE,23,4.0,4.0,88,0.00,,,0.00,meteohub,2013-08-31 15:27:00,
2013-08-31 10:32:00,77.0,73.6,29.79,NNE,24,2.0,6.0,87,0.00,,,0.00,meteohub,2013-08-31 15:32:00,
2013-08-31 10:37:00,77.0,73.9,29.79,NNE,24,3.0,6.0,87,0.00,,,0.00,meteohub,2013-08-31 15:37:00,
2013-08-31 10:42:00,78.1,73.8,29.80,North,5,3.0,6.0,87,0.00,,,0.00,meteohub,2013-08-31 15:42:00,
2013-08-31 10:47:00,78.1,74.1,29.79,North,10,1.0,5.0,87,0.00,,,0.00,meteohub,2013-08-31 15:47:00,
2013-08-31 10:52:00,79.0,74.3,29.79,NNE,24,2.0,5.0,86,0.00,,,0.00,meteohub,2013-08-31 15:52:00,
2013-08-31 10:57:00,79.0,74.8,29.79,NNE,32,1.0,5.0,85,0.00,,,0.00,meteohub,2013-08-31 15:57:00,
2013-08-31 11:02:00,80.1,74.8,29.78,NNE,30,2.0,6.0,83,0.00,,,0.00,meteohub,2013-08-31 16:02:00,
2013-08-31 11:07:00,81.0,74.8,29.78,NNE,31,2.0,6.0,82,0.00,,,0.00,meteohub,2013-08-31 16:07:00,
2013-08-31 11:12:00,81.0,75.2,29.78,NE,40,1.0,6.0,79,0.00,,,0.00,meteohub,2013-08-31 16:12:00,
2013-08-31 11:18:00,82.0,74.8,29.78,SSE,158,1.0,4.0,78,0.00,,,0.00,meteohub,2013-08-31 16:18:00,
2013-08-31 11:23:00,82.9,75.7,29.77,SSE,163,0.0,5.0,77,0.00,,,0.00,meteohub,2013-08-31 16:23:00,
2013-08-31 11:28:00,84.0,74.7,29.77,SSE,163,0.0,5.0,74,0.00,,,0.00,meteohub,2013-08-31 16:28:00,
2013-08-31 11:33:00,84.0,74.7,29.77,SSE,163,0.0,5.0,72,0.00,,,0.00,meteohub,2013-08-31 16:33:00,
2013-08-31 11:38:00,84.0,74.3,29.77,ESE,123,0.0,5.0,71,0.00,,,0.00,meteohub,2013-08-31 16:38:00,
2013-08-31 11:43:00,84.9,73.9,29.77,SE,127,0.0,3.0,71,0.00,,,0.00,meteohub,2013-08-31 16:43:00,
2013-08-31 11:48:00,84.9,73.2,29.77,SE,126,0.0,3.0,68,0.00,,,0.00,meteohub,2013-08-31 16:48:00,
2013-08-31 11:54:00,86.0,73.4,29.77,ESE,106,0.0,2.0,67,0.00,,,0.00,meteohub,2013-08-31 16:54:00,
2013-08-31 11:59:00,86.0,73.0,29.77,North,350,0.0,2.0,67,0.00,,,0.00,meteohub,2013-08-31 16:59:00,
2013-08-31 12:04:00,87.1,73.4,29.77,North,355,0.0,2.0,65,0.00,,,0.00,meteohub,2013-08-31 17:04:00,
2013-08-31 12:09:00,87.1,73.4,29.76,NNW,333,3.0,4.0,67,0.00,,,0.00,meteohub,2013-08-31 17:09:00,
2013-08-31 12:14:00,87.1,74.1,29.76,WNW,282,1.0,4.0,66,0.00,,,0.00,meteohub,2013-08-31 17:14:00,
2013-08-31 12:19:00,88.0,74.3,29.76,WNW,298,2.0,4.0,66,0.00,,,0.00,meteohub,2013-08-31 17:19:00,
2013-08-31 12:24:00,88.0,74.3,29.76,East,84,5.0,6.0,65,0.00,,,0.00,meteohub,2013-08-31 17:24:00,
2013-08-31 12:30:00,89.1,73.2,29.75,NE,38,0.0,6.0,61,0.00,,,0.00,meteohub,2013-08-31 17:30:00,
2013-08-31 12:35:00,89.1,73.6,29.75,SE,124,2.0,6.0,63,0.00,,,0.00,meteohub,2013-08-31 17:35:00,
2013-08-31 12:40:00,89.1,73.4,29.75,East,92,0.0,6.0,62,0.00,,,0.00,meteohub,2013-08-31 17:40:00,
2013-08-31 12:45:00,89.1,72.5,29.75,ENE,67,0.0,7.0,58,0.00,,,0.00,meteohub,2013-08-31 17:45:00,
2013-08-31 12:50:00,89.1,73.0,29.75,SSE,165,2.0,7.0,60,0.00,,,0.00,meteohub,2013-08-31 17:50:00,
2013-08-31 12:55:00,90.0,73.2,29.75,SE,142,0.0,5.0,60,0.00,,,0.00,meteohub,2013-08-31 17:55:00,
2013-08-31 13:01:00,90.0,73.8,29.75,ENE,58,3.0,5.0,61,0.00,,,0.00,meteohub,2013-08-31 18:01:00,
2013-08-31 13:06:00,90.0,73.0,29.75,ENE,57,2.0,4.0,59,0.00,,,0.00,meteohub,2013-08-31 18:06:00,
2013-08-31 13:11:00,90.0,73.9,29.75,NE,45,3.0,6.0,59,0.00,,,0.00,meteohub,2013-08-31 18:11:00,
2013-08-31 13:16:00,90.0,73.8,29.75,ENE,72,5.0,8.0,58,0.00,,,0.00,meteohub,2013-08-31 18:16:00,
2013-08-31 13:21:00,91.0,72.3,29.75,WSW,252,2.0,8.0,57,0.00,,,0.00,meteohub,2013-08-31 18:21:00,
2013-08-31 13:26:00,91.0,72.9,29.74,NE,42,5.0,8.0,57,0.00,,,0.00,meteohub,2013-08-31 18:26:00,
2013-08-31 13:31:00,91.0,72.0,29.74,NE,40,4.0,8.0,55,0.00,,,0.00,meteohub,2013-08-31 18:31:00,
2013-08-31 13:36:00,91.0,71.4,29.74,NE,50,0.0,8.0,53,0.00,,,0.00,meteohub,2013-08-31 18:36:00,
2013-08-31 13:41:00,91.0,72.5,29.74,ENE,78,3.0,8.0,55,0.00,,,0.00,meteohub,2013-08-31 18:41:00,
2013-08-31 13:46:00,91.0,72.1,29.74,ENE,59,0.0,8.0,57,0.00,,,0.00,meteohub,2013-08-31 18:46:00,
2013-08-31 13:52:00,91.0,71.6,29.74,NNE,26,0.0,8.0,54,0.00,,,0.00,meteohub,2013-08-31 18:52:00,
2013-08-31 13:57:00,91.9,71.6,29.74,NNE,20,3.0,8.0,53,0.00,,,0.00,meteohub,2013-08-31 18:57:00,
2013-08-31 14:02:00,91.9,71.6,29.74,NNE,13,0.0,7.0,54,0.00,,,0.00,meteohub,2013-08-31 19:02:00,
2013-08-31 14:07:00,91.9,73.2,29.74,NE,52,0.0,7.0,53,0.00,,,0.00,meteohub,2013-08-31 19:07:00,
2013-08-31 14:12:00,91.9,71.4,29.73,NE,52,0.0,3.0,53,0.00,,,0.00,meteohub,2013-08-31 19:12:00,
2013-08-31 14:17:00,93.0,71.4,29.73,SSW,196,5.0,5.0,53,0.00,,,0.00,meteohub,2013-08-31 19:17:00,
2013-08-31 14:22:00,93.0,73.6,29.73,South,175,0.0,5.0,53,0.00,,,0.00,meteohub,2013-08-31 19:22:00,
2013-08-31 14:27:00,93.0,73.0,29.73,East,94,3.0,6.0,51,0.00,,,0.00,meteohub,2013-08-31 19:27:00,
2013-08-31 14:32:00,93.0,72.5,29.73,NE,42,0.0,7.0,51,0.00,,,0.00,meteohub,2013-08-31 19:32:00,
2013-08-31 14:37:00,93.0,72.7,29.73,NE,56,0.0,7.0,52,0.00,,,0.00,meteohub,2013-08-31 19:37:00,
2013-08-31 14:42:00,93.0,72.3,29.73,East,79,0.0,7.0,51,0.00,,,0.00,meteohub,2013-08-31 19:42:00,
2013-08-31 14:47:00,93.0,72.5,29.73,East,79,0.0,4.0,50,0.00,,,0.00,meteohub,2013-08-31 19:47:00,
2013-08-31 14:52:00,93.9,71.8,29.73,SSW,200,0.0,6.0,50,0.00,,,0.00,meteohub,2013-08-31 19:52:00,
2013-08-31 14:57:00,93.9,72.0,29.73,SW,225,3.0,6.0,50,0.00,,,0.00,meteohub,2013-08-31 19:57:00,
2013-08-31 15:02:00,95.0,69.6,29.72,SW,227,0.0,16.0,50,0.00,,,0.00,meteohub,2013-08-31 20:02:00,
2013-08-31 15:07:00,95.0,70.5,29.72,SW,227,0.0,16.0,46,0.00,,,0.00,meteohub,2013-08-31 20:07:00,
2013-08-31 15:12:00,95.0,72.0,29.72,SW,227,0.0,16.0,49,0.00,,,0.00,meteohub,2013-08-31 20:12:00,
2013-08-31 15:17:00,95.0,71.8,29.72,SSW,206,0.0,3.0,47,0.00,,,0.00,meteohub,2013-08-31 20:17:00,
2013-08-31 15:22:00,95.0,71.1,29.72,SW,232,0.0,1.0,49,0.00,,,0.00,meteohub,2013-08-31 20:22:00,
2013-08-31 15:27:00,95.0,71.8,29.71,SSE,147,2.0,5.0,49,0.00,,,0.00,meteohub,2013-08-31 20:27:00,
2013-08-31 15:32:00,96.1,72.0,29.71,SSE,165,0.0,5.0,49,0.00,,,0.00,meteohub,2013-08-31 20:32:00,
2013-08-31 15:37:00,96.1,71.1,29.71,ESE,121,0.0,6.0,46,0.00,,,0.00,meteohub,2013-08-31 20:37:00,
2013-08-31 15:42:00,96.1,72.0,29.71,ESE,121,0.0,6.0,47,0.00,,,0.00,meteohub,2013-08-31 20:42:00,
2013-08-31 15:47:00,96.1,69.3,29.71,SSW,210,7.0,7.0,43,0.00,,,0.00,meteohub,2013-08-31 20:47:00,
2013-08-31 15:52:00,95.0,69.1,29.70,SSW,211,0.0,7.0,45,0.00,,,0.00,meteohub,2013-08-31 20:52:00,
2013-08-31 15:57:00,95.0,68.0,29.70,SSW,211,0.0,7.0,45,0.00,,,0.00,meteohub,2013-08-31 20:57:00,
2013-08-31 16:02:00,96.1,68.4,29.70,SSW,211,0.0,7.0,48,0.00,,,0.00,meteohub,2013-08-31 21:02:00,
2013-08-31 16:07:00,96.1,68.5,29.70,SSW,211,1.0,4.0,44,0.00,,,0.00,meteohub,2013-08-31 21:07:00,
2013-08-31 16:12:00,96.1,69.3,29.70,SSW,211,2.0,5.0,42,0.00,,,0.00,meteohub,2013-08-31 21:12:00,
2013-08-31 16:17:00,96.1,68.5,29.70,SSW,211,0.0,5.0,44,0.00,,,0.00,meteohub,2013-08-31 21:17:00,
2013-08-31 16:22:00,96.1,70.2,29.70,SSW,203,3.0,5.0,44,0.00,,,0.00,meteohub,2013-08-31 21:22:00,
2013-08-31 16:27:00,96.1,69.4,29.70,SSW,213,0.0,6.0,43,0.00,,,0.00,meteohub,2013-08-31 21:27:00,
2013-08-31 16:32:00,96.1,69.4,29.69,SSW,199,3.0,6.0,44,0.00,,,0.00,meteohub,2013-08-31 21:32:00,
2013-08-31 16:37:00,96.1,70.3,29.69,SSW,202,0.0,6.0,43,0.00,,,0.00,meteohub,2013-08-31 21:37:00,
2013-08-31 16:42:00,96.1,69.6,29.69,SSW,209,0.0,7.0,42,0.00,,,0.00,meteohub,2013-08-31 21:42:00,
2013-08-31 16:47:00,96.1,68.9,29.69,SSW,209,0.0,7.0,44,0.00,,,0.00,meteohub,2013-08-31 21:47:00,
2013-08-31 16:52:00,96.1,70.2,29.69,SSW,210,1.0,7.0,44,0.00,,,0.00,meteohub,2013-08-31 21:52:00,
2013-08-31 16:57:00,95.0,70.2,29.68,SW,224,4.0,7.0,45,0.00,,,0.00,meteohub,2013-08-31 21:57:00,
2013-08-31 17:02:00,95.0,70.7,29.68,SW,219,0.0,8.0,46,0.00,,,0.00,meteohub,2013-08-31 22:02:00,
2013-08-31 17:07:00,95.0,70.7,29.68,SW,218,0.0,8.0,46,0.00,,,0.00,meteohub,2013-08-31 22:07:00,
2013-08-31 17:12:00,95.0,70.3,29.68,SSW,209,7.0,8.0,45,0.00,,,0.00,meteohub,2013-08-31 22:12:00,
2013-08-31 17:17:00,95.0,70.7,29.68,SW,215,1.0,8.0,44,0.00,,,0.00,meteohub,2013-08-31 22:17:00,
2013-08-31 17:22:00,93.9,69.8,29.68,SSW,205,3.0,8.0,47,0.00,,,0.00,meteohub,2013-08-31 22:22:00,
2013-08-31 17:27:00,93.9,70.3,29.68,SSW,198,2.0,8.0,46,0.00,,,0.00,meteohub,2013-08-31 22:27:00,
2013-08-31 17:32:00,93.9,70.3,29.68,SSW,198,0.0,8.0,46,0.00,,,0.00,meteohub,2013-08-31 22:32:00,
2013-08-31 17:37:00,93.9,70.9,29.68,SSW,197,0.0,7.0,49,0.00,,,0.00,meteohub,2013-08-31 22:37:00,
2013-08-31 17:42:00,95.0,71.6,29.68,SSW,197,0.0,4.0,47,0.00,,,0.00,meteohub,2013-08-31 22:42:00,
2013-08-31 17:47:00,93.9,71.6,29.68,SW,224,3.0,6.0,48,0.00,,,0.00,meteohub,2013-08-31 22:47:00,
2013-08-31 17:52:00,93.9,70.0,29.67,SW,223,4.0,6.0,47,0.00,,,0.00,meteohub,2013-08-31 22:52:00,
2013-08-31 17:57:00,93.0,70.7,29.67,SSW,193,4.0,6.0,49,0.00,,,0.00,meteohub,2013-08-31 22:57:00,
2013-08-31 18:02:00,93.0,72.0,29.67,SSW,203,3.0,6.0,50,0.00,,,0.00,meteohub,2013-08-31 23:02:00,
2013-08-31 18:07:00,93.0,71.1,29.67,SSW,205,4.0,6.0,49,0.00,,,0.00,meteohub,2013-08-31 23:07:00,
2013-08-31 18:13:00,93.0,70.9,29.67,SSW,201,4.0,7.0,50,0.00,,,0.00,meteohub,2013-08-31 23:13:00,
2013-08-31 18:18:00,91.9,70.2,29.67,SSW,201,4.0,7.0,50,0.00,,,0.00,meteohub,2013-08-31 23:18:00,
2013-08-31 18:23:00,91.9,70.7,29.67,SSW,201,4.0,7.0,48,0.00,,,0.00,meteohub,2013-08-31 23:23:00,
2013-08-31 18:28:00,91.9,69.3,29.67,SSW,202,0.0,7.0,47,0.00,,,0.00,meteohub,2013-08-31 23:28:00,
2013-08-31 18:33:00,91.0,69.1,29.67,WSW,240,0.0,7.0,48,0.00,,,0.00,meteohub,2013-08-31 23:33:00,
2013-08-31 18:38:00,91.0,69.3,29.67,WSW,240,0.0,7.0,49,0.00,,,0.00,meteohub,2013-08-31 23:38:00,
2013-08-31 18:44:00,91.0,70.2,29.67,WSW,240,0.0,7.0,52,0.00,,,0.00,meteohub,2013-08-31 23:44:00,
2013-08-31 18:49:00,90.0,70.0,29.67,WSW,240,0.0,5.0,56,0.00,,,0.00,meteohub,2013-08-31 23:49:00,
2013-08-31 18:54:00,90.0,70.5,29.67,WSW,240,0.0,5.0,56,0.00,,,0.00,meteohub,2013-08-31 23:54:00,
2013-08-31 18:59:00,89.1,71.6,29.67,WSW,240,0.0,1.0,57,0.00,,,0.00,meteohub,2013-08-31 23:59:00,
2013-08-31 19:04:00,87.1,72.7,29.67,WSW,240,0.0,0.0,61,0.00,,,0.00,meteohub,2013-09-01 00:04:00,
2013-08-31 19:09:00,86.0,72.0,29.67,WSW,240,0.0,0.0,63,0.00,,,0.00,meteohub,2013-09-01 00:09:00,
2013-08-31 19:15:00,84.9,70.5,29.67,WSW,240,0.0,0.0,64,0.00,,,0.00,meteohub,2013-09-01 00:15:00,
2013-08-31 19:20:00,84.9,70.9,29.67,WSW,240,0.0,0.0,65,0.00,,,0.00,meteohub,2013-09-01 00:20:00,
2013-08-31 19:25:00,84.0,72.0,29.66,WSW,240,0.0,1.0,68,0.00,,,0.00,meteohub,2013-09-01 00:25:00,
2013-08-31 19:30:00,84.0,72.5,29.66,WSW,240,0.0,1.0,69,0.00,,,0.00,meteohub,2013-09-01 00:30:00,
2013-08-31 19:35:00,82.9,73.0,29.66,WSW,240,0.0,0.0,70,0.00,,,0.00,meteohub,2013-09-01 00:35:00,
2013-08-31 19:40:00,82.9,72.7,29.66,WSW,240,0.0,0.0,71,0.00,,,0.00,meteohub,2013-09-01 00:40:00,
2013-08-31 19:45:00,82.9,73.2,29.66,WSW,240,0.0,0.0,71,0.00,,,0.00,meteohub,2013-09-01 00:45:00,
2013-08-31 19:50:00,82.9,73.0,29.66,WSW,240,0.0,1.0,71,0.00,,,0.00,meteohub,2013-09-01 00:50:00,
2013-08-31 19:55:00,82.9,72.9,29.66,WSW,240,0.0,1.0,71,0.00,,,0.00,meteohub,2013-09-01 00:55:00,
2013-08-31 20:00:00,82.9,72.9,29.66,WSW,240,0.0,1.0,70,0.00,,,0.00,meteohub,2013-09-01 01:00:00,
2013-08-31 20:06:00,82.9,72.5,29.66,WSW,240,0.0,1.0,72,0.00,,,0.00,meteohub,2013-09-01 01:06:00,
2013-08-31 20:11:00,82.0,72.3,29.66,WSW,240,0.0,1.0,73,0.00,,,0.00,meteohub,2013-09-01 01:11:00,
2013-08-31 20:16:00,82.0,72.1,29.67,WSW,240,0.0,1.0,72,0.00,,,0.00,meteohub,2013-09-01 01:16:00,
2013-08-31 20:21:00,81.0,72.3,29.67,WSW,240,0.0,1.0,72,0.00,,,0.00,meteohub,2013-09-01 01:21:00,
2013-08-31 20:26:00,81.0,72.0,29.67,WSW,240,0.0,1.0,76,0.00,,,0.00,meteohub,2013-09-01 01:26:00,
2013-08-31 20:31:00,80.1,72.1,29.68,WSW,240,0.0,0.0,77,0.00,,,0.00,meteohub,2013-09-01 01:31:00,
2013-08-31 20:36:00,79.0,72.1,29.68,WSW,240,0.0,0.0,79,0.00,,,0.00,meteohub,2013-09-01 01:36:00,
2013-08-31 20:41:00,78.1,72.0,29.68,WSW,240,0.0,0.0,80,0.00,,,0.00,meteohub,2013-09-01 01:41:00,
2013-08-31 20:46:00,78.1,71.8,29.68,WSW,240,0.0,0.0,81,0.00,,,0.00,meteohub,2013-09-01 01:46:00,
2013-08-31 20:52:00,77.0,72.0,29.68,WSW,240,0.0,0.0,82,0.00,,,0.00,meteohub,2013-09-01 01:52:00,
2013-08-31 20:57:00,77.0,71.4,29.68,WSW,240,0.0,0.0,83,0.00,,,0.00,meteohub,2013-09-01 01:57:00,
2013-08-31 21:02:00,75.9,71.8,29.68,WSW,240,0.0,0.0,84,0.00,,,0.00,meteohub,2013-09-01 02:02:00,
2013-08-31 21:07:00,75.9,71.6,29.69,WSW,240,0.0,0.0,84,0.00,,,0.00,meteohub,2013-09-01 02:07:00,
2013-08-31 21:12:00,75.0,71.4,29.69,WSW,240,0.0,0.0,85,0.00,,,0.00,meteohub,2013-09-01 02:12:00,
2013-08-31 21:17:00,75.0,71.4,29.69,WSW,240,0.0,0.0,85,0.00,,,0.00,meteohub,2013-09-01 02:17:00,
2013-08-31 21:22:00,75.0,71.6,29.69,WSW,240,0.0,0.0,86,0.00,,,0.00,meteohub,2013-09-01 02:22:00,
2013-08-31 21:27:00,73.9,71.4,29.70,WSW,240,0.0,0.0,86,0.00,,,0.00,meteohub,2013-09-01 02:27:00,
2013-08-31 21:32:00,73.9,71.2,29.70,WSW,240,0.0,0.0,86,0.00,,,0.00,meteohub,2013-09-01 02:32:00,
2013-08-31 21:37:00,73.9,71.1,29.70,WSW,240,0.0,0.0,87,0.00,,,0.00,meteohub,2013-09-01 02:37:00,
2013-08-31 21:42:00,73.9,70.9,29.70,WSW,240,0.0,0.0,87,0.00,,,0.00,meteohub,2013-09-01 02:42:00,
2013-08-31 21:47:00,73.0,71.1,29.70,WSW,240,0.0,0.0,87,0.00,,,0.00,meteohub,2013-09-01 02:47:00,
2013-08-31 21:52:00,73.0,70.9,29.70,WSW,240,0.0,0.0,87,0.00,,,0.00,meteohub,2013-09-01 02:52:00,
2013-08-31 21:57:00,73.0,70.9,29.70,WSW,240,0.0,0.0,88,0.00,,,0.00,meteohub,2013-09-01 02:57:00,
2013-08-31 22:02:00,73.0,70.7,29.70,WSW,240,0.0,0.0,88,0.00,,,0.00,meteohub,2013-09-01 03:02:00,
2013-08-31 22:07:00,73.0,70.9,29.70,WSW,240,0.0,0.0,88,0.00,,,0.00,meteohub,2013-09-01 03:07:00,
2013-08-31 22:12:00,72.0,70.7,29.70,WSW,240,0.0,0.0,88,0.00,,,0.00,meteohub,2013-09-01 03:12:00,
2013-08-31 22:18:00,72.0,70.7,29.71,WSW,240,0.0,0.0,89,0.00,,,0.00,meteohub,2013-09-01 03:18:00,
2013-08-31 22:23:00,72.0,71.1,29.70,WSW,240,0.0,0.0,89,0.00,,,0.00,meteohub,2013-09-01 03:23:00,
2013-08-31 22:28:00,72.0,70.7,29.70,WSW,240,0.0,0.0,89,0.00,,,0.00,meteohub,2013-09-01 03:28:00,
2013-08-31 22:33:00,72.0,70.9,29.70,WSW,240,0.0,0.0,89,0.00,,,0.00,meteohub,2013-09-01 03:33:00,
2013-08-31 22:38:00,72.0,70.7,29.70,WSW,240,0.0,0.0,90,0.00,,,0.00,meteohub,2013-09-01 03:38:00,
2013-08-31 22:43:00,72.0,70.7,29.70,WSW,240,0.0,0.0,90,0.00,,,0.00,meteohub,2013-09-01 03:43:00,
2013-08-31 22:48:00,72.0,70.5,29.70,WSW,240,0.0,0.0,90,0.00,,,0.00,meteohub,2013-09-01 03:48:00,
2013-08-31 22:53:00,71.1,70.3,29.70,WSW,240,0.0,0.0,90,0.00,,,0.00,meteohub,2013-09-01 03:53:00,
2013-08-31 22:58:00,71.1,70.3,29.71,WSW,240,0.0,0.0,89,0.00,,,0.00,meteohub,2013-09-01 03:58:00,
2013-08-31 23:01:00,71.1,70.2,29.70,WSW,240,0.0,0.0,90,0.00,,,0.00,meteohub,2013-09-01 04:01:00,
2013-08-31 23:02:00,71.1,70.2,29.70,WSW,240,0.0,0.0,90,0.00,,,0.00,meteohub,2013-09-01 04:02:00,
2013-08-31 23:04:00,71.1,70.5,29.71,WSW,240,0.0,0.0,90,0.00,,,0.00,meteohub,2013-09-01 04:04:00,
2013-08-31 23:09:00,71.1,70.3,29.70,WSW,240,0.0,0.0,90,0.00,,,0.00,meteohub,2013-09-01 04:09:00,
2013-08-31 23:11:00,71.1,70.3,29.70,WSW,240,0.0,0.0,90,0.00,,,0.00,meteohub,2013-09-01 04:11:00,
2013-08-31 23:16:00,71.1,70.5,29.70,WSW,240,0.0,0.0,90,0.00,,,0.00,meteohub,2013-09-01 04:16:00,
2013-08-31 23:21:00,71.1,70.5,29.70,WSW,240,0.0,0.0,91,0.00,,,0.00,meteohub,2013-09-01 04:21:00,
2013-08-31 23:26:00,71.1,70.7,29.69,WSW,240,0.0,1.0,90,0.00,,,0.00,meteohub,2013-09-01 04:26:00,
2013-08-31 23:31:00,71.1,70.5,29.69,WSW,240,0.0,1.0,90,0.00,,,0.00,meteohub,2013-09-01 04:31:00,
2013-08-31 23:37:00,71.1,70.5,29.70,WSW,240,0.0,1.0,91,0.00,,,0.00,meteohub,2013-09-01 04:37:00,
2013-08-31 23:42:00,71.1,70.5,29.70,WSW,240,0.0,0.0,91,0.00,,,0.00,meteohub,2013-09-01 04:42:00,
2013-08-31 23:47:00,71.1,70.5,29.69,WSW,240,0.0,0.0,91,0.00,,,0.00,meteohub,2013-09-01 04:47:00,
2013-08-31 23:52:00,71.1,70.5,29.69,WSW,240,0.0,0.0,91,0.00,,,0.00,meteohub,2013-09-01 04:52:00,
2013-08-31 23:57:00,71.1,70.5,29.69,WSW,240,0.0,0.0,91,0.00,,,0.00,meteohub,2013-09-01 04:57:00,